174  
ASUS43 KMKX 221421  
RWRWI  
 
WISCONSIN REGIONAL WEATHER ROUNDUP  
NATIONAL WEATHER SERVICE MILWAUKEE/SULLIVAN WI  
900 AM CDT TUE AUG 22 2017  
 
NOTE: "FAIR" INDICATES FEW OR NO CLOUDS BELOW 12,000 FEET WITH NO  
SIGNIFICANT WEATHER AND/OR S TO VISIBILITY
.  
 
WIZ001-002-006>008-014>016-023>028-221500-  
NORTHWEST WISCONSIN  
 
CITY SKY/WX TMP DP RH WIND PRES REMARKS
 
SUPERIOR ARPT N/A 58 54 85 W9 29.94F  
ASHLAND MOSUNNY 62 55 77 W8 29.91R  
HAYWARD MOSUNNY 59 51 75 N8 29.95R  
SIREN SUNNY 61 52 74 NW10G16 29.98S  
CUMBERLAND SUNNY 59 52 77 NW13G18 29.98R  
RICE LAKE SUNNY 61 52 72 NW9G17 29.98S  
CHETEK MOSUNNY 62 54 76 NW9 29.96R  
LADYSMITH PTSUNNY 60 54 80 NW10G23 29.95R  
EAU CLAIRE MOSUNNY 64 55 72 NW14G20 29.95R  
MENOMONIE SUNNY 63 55 75 NW13G18 29.98R  
NEW RICHMOND SUNNY 62 53 73 NW14 30.00S  
OSCEOLA SUNNY 62 53 73 NW12G17 30.03R  

 
 
WIZ003>005-009-010-017-018-221500-  
NORTH CENTRAL WISCONSIN  
 
CITY SKY/WX TMP DP RH WIND PRES REMARKS
 
MANITOWISH WTR CLOUDY 59 58 94 NW10G17 29.88S  
ARBOR VITAE PTSUNNY 59 55 85 NW12G18 29.87F  
WOODRUFF PTSUNNY 59 55 85 NW12G18 29.87F  
RHINELANDER MOSUNNY 60 53 77 NW10G20 29.88R  
EAGLE RIVER MOSUNNY 60 51 71 NW10G23 29.85S  
LAND O LAKES MOSUNNY 59 54 83 NW12G17 29.86F  
PHILLIPS CLOUDY 57 54 88 NW8 29.91S  
TOMAHAWK N/A 59 52 79 W9G16 29.89S  
MEDFORD PTSUNNY 59 53 81 NW14G22 29.91R  
MERRILL MOSUNNY 63 54 72 N12 29.89R  

 
 
WIZ029-030-035-036-043>047-221500-  
CENTRAL WISCONSIN  
 
CITY SKY/WX TMP DP RH WIND PRES REMARKS
 
WAUSAU SUNNY 63 53 70 NW18G25 29.87R  
MOSINEE MOSUNNY 63 55 77 NW13G18 29.89R  
MARSHFIELD MOSUNNY 64 54 69 NW12 29.90R  
STEVENS POINT MOSUNNY 62 54 73 NW9G21 29.88S  
WAUPACA MOSUNNY 68 55 62 NW16G23 29.86R  
WAUTOMA MOSUNNY 68 57 68 N15G21 29.87R  
WISC RAPIDS SUNNY 65 55 70 N16G24 29.90R  
CAMP DOUGLAS MOSUNNY 68 61 77 NW14 29.91R  

 
 
WIZ011>013-019>022-031-037>040-048>050-221500-  
NORTHEAST WISCONSIN  
 
CITY SKY/WX TMP DP RH WIND PRES REMARKS
 
ANTIGO PTSUNNY 60 54 80 NW17G23 29.87S  
SHAWANO PTSUNNY 67 55 63 N9G20 29.83R  
OCONTO PTSUNNY 65 54 67 NW9G18 29.80R  
STURGEON BAY PTSUNNY 65 56 72 NW17 29.79R  
GREEN BAY CLOUDY 66 59 78 NW21G29 29.81R  
MANITOWOC CLOUDY 72 63 73 W13 29.80  
APPLETON PTSUNNY 66 59 77 NW16G25 29.81R  
CLINTONVILLE PTSUNNY 64 52 63 NW9 29.84R  
OSHKOSH PTSUNNY 70 63 78 W12 29.82R  

 
 
WIZ032>034-041-042-053>061-221500-  
SOUTHWEST WISCONSIN  
 
CITY SKY/WX TMP DP RH WIND PRES REMARKS
 
LA CROSSE MOSUNNY 69 58 67 NW14 29.95R  
SPARTA PTSUNNY 65 58 78 NW14G23 29.94R  
VIROQUA CLOUDY 64 60 86 NW15G21 29.95R  
BOSCOBEL MOSUNNY 69 61 75 NW7 29.93R  
PRAIRIE DU CHI PTSUNNY 67 58 74 NW8 29.95R  
PLATTEVILLE CLOUDY 66 66 99 W8 29.94S  

 
 
WIZ056-057-062-063-064-067-068-221500-  
SOUTH CENTRAL WISCONSIN  
 
CITY SKY/WX TMP DP RH WIND PRES REMARKS
 
REEDSBURG PTSUNNY 67 61 80 NW12 29.90R  
BARABOO/DELLS CLOUDY 67 58 72 NW16G24 29.89R  
LONE ROCK CLOUDY 69 62 78 NW13G18 29.91R  
MINERAL POINT CLOUDY 68 64 88 W9 29.93R  
MADISON CLOUDY 68 63 84 W9 29.88R  
MIDDLETON CLOUDY 69 65 87 W9 29.90R  
WATERTOWN CLOUDY 69 65 89 W13 29.86S  
MONROE CLOUDY 66 61 82 W9G16 29.91S  
JANESVILLE MOSUNNY 70 64 83 W13 29.88S  

 
 
WIZ051-052-058>065-066-070>072-221500-  
SOUTHEAST WISCONSIN  
 
CITY SKY/WX TMP DP RH WIND PRES REMARKS
 
MILWAUKEE PTSUNNY 71 63 75 W15 29.84R  
WAUKESHA CLOUDY 64 61 88 W13G18 29.86R  
MILWAUKEE/TIMM PTSUNNY 68 59 73 W12G21 29.84R  
RACINE CLOUDY 70 64 81 W13 29.86R  
KENOSHA CLOUDY 69 63 81 W15G22 29.86R  
FOND DU LAC PTSUNNY 70 61 73 W15 29.83R  
SHEBOYGAN MOSUNNY 70 65 84 W14 29.81R  
WEST BEND CLOUDY 68 63 83 W13 29.83S  
JUNEAU CLOUDY 67 62 84 W9 29.87R  

 
 
LSZ147-162-221500-  
LAKE SUPERIOR  
 
STATION/POSITION TIME TEMP WIND PRES WAVE
 
AIR SEA DIR/SP/G HT/PER  
(UTC) (F) (DEG/KT/KT) (MB) (FT/S)  
W MID LAKE BUOY 1250 60 60 280/ 14/ 17 1009.6R 1/ 3  
DEVILS ISLAND 1300 60 290/ 21/ 23 1011.7R  
PORT WING 1140 62 310/ 16/ 21 1012.2  
SAXON HARBOR 1340 62 300/ 14/ 18 1011.9R  

 
 
LMZ867-665-643>646-221500-  
LAKE MICHIGAN  
 
STATION/POSITION TIME TEMP WIND PRES WAVE
 
AIR SEA DIR/SP/G HT/PER  
(UTC) (F) (DEG/KT/KT) (MB) (FT/S)  
S GREEN BAY BUOY 1400 67 71 300/ 19/ 25 1008.9  
N MID LAKE BUOY 1250 63 68 320/ 27/ 31 1005.7R 3/ 4  
NORTHPORT PIER 1315 65 320/ 23/ 27 1007.5R  
KEWAUNEE LAKESHO 1354 71 330/ 8/ 13 1007.4R  
SHEBOYGAN LAKESH 1300 68 260/ 17/ 19 1008.2R  
PORT WASHINGTON 1330 70 290/ 12/ 16 1010.2S  
ATWATER BUOY 1309 69 66 250/ 16/ 17 1009.8R  
MILWAUKEE LAKESH 1400 70 270/ 14/ 20 N/A  
S MID LAKE BUOY 1250 72 71 290/ 17/ 19 1009.4R 3/ 6  
KENOSHA LAKESH 1300 71 250/ 9/ 19 1010.5  

 
 
TC - TEMPERATURE IN CELSIUS  
VSB - VISIBILITY IN STATUTE MILES  
WCI - WIND CHILL INDEX  
HX - HEAT INDEX  
 
 
 
CLICK HERE TO GO TO PREVIOUS BULLETINS.

The Nexlab WI Page Main Text Page